User: anonymous   Login
Location: ????
(33.1659°N, 35.6604°E)
Time: 18:24:10
(UTC+00:00)
Language:

MONITOR-E - Orbit

View from above orbital plane
View from above orbital plane
View from above satellite
View from above satellite

Ground track
Ground track

The orbit data is extracted from the following two-line orbital elements,

1 28822U 05032A   19322.31606326  .00022413  00000-0  15138-3 0  9999
2 28822  97.0679 353.3469 0002599 129.7224 230.4271 15.75084024794035
Epoch (UTC): 18 November 2019 07:35:07
Eccentricity: 0.0002599
inclination: 97.0679°
perigee height: 342 km
apogee height: 346 km
right ascension of ascending node: 353.3469°
argument of perigee: 129.7224°
revolutions per day: 15.75084024
mean anomaly at epoch: 230.4271°
orbit number at epoch: 79403

The dashed part of the orbit path shows where the satellite is in the earth's shadow,  

DLR